Location: Calmejanne
(44.7523°N, 1.9418°E)
Time: 08:20:06
(UTC+00:00)

SL-16 R/B - Pass Details

Date: 14 May 2026
Orbit: 841 x 844 km, 71.0° (Epoch: 6 June)

Event Time Altitude Azimuth Distance (km) Brightness Sun altitude
Rises 19:36:01 0° 342° (NNW) 3,414 6.2 -4.4°
Reaches altitude 10° 19:39:05 10° 358° (N) 2,475 5.2 -4.9°
Maximum altitude 19:43:22 22° 47° (NE) 1,789 3.8 -5.5°
Drops below altitude 10° 19:47:39 10° 97° (E) 2,465 4.1 -6.1°
Enters shadow 19:48:56 - 105° (ESE) 2,835 4.3 -6.3°
